FW2929 Weather Reports


time (UTC)temp
C
wind
direction
speed
KPH
gust
KPH
rain 1hr
cm
rain 24hr
cm
rain mn
cm
humidity
%
barometer
mb
20260506164328 15 360 0.0 1.6 0.00 0.00 0.00 66 1009.4
20260506163835 15 360 0.0 0.0 0.00 0.00 0.00 67 1009.4
20260506163346 15 346 0.0 0.0 0.00 0.00 0.00 67 1009.4
20260506162835 15 348 0.0 0.0 0.00 0.00 0.00 67 1009.2
20260506162328 15 348 0.0 0.0 0.00 0.00 0.00 66 1009.1
20260506161838 15 31 0.0 4.8 0.00 0.00 0.00 66 1009.3
20260506161357 15 360 0.0 4.8 0.00 0.00 0.00 68 1009.2
20260506160828 14 360 0.0 1.6 0.00 0.00 0.00 68 1009.2
20260506160339 14 360 0.0 1.6 0.00 0.00 0.00 70 1009.3
20260506155844 14 360 0.0 0.0 0.00 0.00 0.00 71 1009.2
20260506155405 14 360 0.0 0.0 0.00 0.00 0.00 70 1009.2
20260506154836 14 360 0.0 0.0 0.00 0.00 0.00 70 1009.2
20260506154358 14 360 0.0 0.0 0.00 0.00 0.00 70 1009.2
20260506153828 13 360 0.0 0.0 0.00 0.00 0.00 71 1009.1
20260506153340 13 360 0.0 0.0 0.00 0.00 0.00 71 1009.1
20260506152829 13 360 0.0 0.0 0.00 0.00 0.00 71 1009.2
20260506152343 13 360 0.0 0.0 0.00 0.00 0.00 71 1009.2
20260506151831 13 360 0.0 0.0 0.00 0.00 0.00 71 1009.2
20260506151342 13 360 0.0 0.0 0.00 0.00 0.00 70 1009.1
20260506150833 13 360 0.0 0.0 0.00 0.00 0.00 71 1009.2
20260506150345 13 360 0.0 0.0 0.00 0.00 0.00 70 1009.1
20260506145849 13 360 0.0 0.0 0.00 0.00 0.00 73 1009.1
20260506145339 13 360 0.0 0.0 0.00 0.00 0.00 73 1009.2
20260506144851 13 360 0.0 0.0 0.00 0.00 0.00 72 1009.1
20260506144337 13 360 0.0 3.2 0.00 0.00 0.00 72 1009.2
20260506143846 13 360 0.0 3.2 0.00 0.00 0.00 73 1009.2
20260506143406 13 360 0.0 0.0 0.00 0.00 0.00 74 1009.1
20260506142834 13 360 0.0 0.0 0.00 0.00 0.00 73 1009.1
20260506142345 13 360 0.0 0.0 0.00 0.00 0.00 73 1009.2
20260506141904 13 360 0.0 4.8 0.00 0.00 0.00 73 1009.2
20260506141341 13 360 0.0 4.8 0.00 0.00 0.00 73 1009.2
20260506140832 13 360 0.0 3.2 0.00 0.00 0.00 72 1009.2
20260506140339 14 360 0.0 3.2 0.00 0.00 0.00 71 1009.2
20260506135847 14 360 0.0 3.2 0.00 0.00 0.00 70 1009.2
20260506135337 14 360 0.0 1.6 0.00 0.00 0.00 70 1009.3
20260506134828 14 360 0.0 3.2 0.00 0.00 0.00 70 1009.2
20260506134335 14 360 0.0 3.2 0.00 0.00 0.00 69 1009.1
20260506133828 14 360 0.0 1.6 0.00 0.00 0.00 69 1009.2
20260506133341 14 360 0.0 0.0 0.00 0.00 0.00 69 1009.2
20260506132831 14 360 0.0 0.0 0.00 0.00 0.00 69 1009.3
20260506132346 14 360 0.0 0.0 0.00 0.00 0.00 67 1009.4
20260506131835 14 360 0.0 0.0 0.00 0.00 0.00 69 1009.3
20260506131347 14 360 0.0 0.0 0.00 0.00 0.00 70 1009.2
20260506130838 14 360 0.0 0.0 0.00 0.00 0.00 70 1009.2
20260506130351 14 360 0.0 0.0 0.00 0.00 0.00 71 1009.2
20260506125841 14 360 0.0 0.0 0.00 0.00 0.00 70 1009.2
20260506125334 14 360 0.0 0.0 0.00 0.00 0.00 71 1009.1
20260506124846 14 360 0.0 0.0 0.00 0.00 0.00 72 1009.0
20260506124332 13 360 0.0 0.0 0.00 0.00 0.00 72 1009.0
20260506123846 13 360 0.0 0.0 0.00 0.00 0.00 73 1009.1
20260506123340 13 360 0.0 0.0 0.00 0.00 0.00 73 1009.0
20260506122828 13 360 0.0 0.0 0.00 0.00 0.00 74 1009.0
20260506122337 13 360 0.0 0.0 0.00 0.00 0.00 74 1009.0
20260506121829 13 360 0.0 0.0 0.00 0.00 0.00 75 1009.0
20260506121340 13 349 0.0 0.0 0.00 0.00 0.00 76 1009.0
20260506120828 13 350 0.0 0.0 0.00 0.00 0.00 74 1009.1
20260506120335 12 296 0.0 0.0 0.00 0.00 0.00 75 1009.1
20260506115845 12 360 0.0 0.0 0.00 0.00 0.00 76 1009.0
20260506115336 12 360 0.0 0.0 0.00 0.00 0.00 77 1009.0
20260506114850 12 295 0.0 0.0 0.00 0.00 0.00 76 1009.0
20260506114342 12 296 0.0 0.0 0.00 0.00 0.00 78 1009.0
20260506113844 12 360 0.0 0.0 0.00 0.00 0.00 78 1009.1
20260506113337 12 360 0.0 0.0 0.00 0.00 0.00 77 1009.1
20260506112830 11 360 0.0 0.0 0.00 0.00 0.00 77 1009.1
20260506112340 11 360 0.0 0.0 0.00 0.00 0.00 77 1009.1
20260506111831 11 360 0.0 0.0 0.00 0.00 0.00 78 1009.1
20260506111345 11 360 0.0 0.0 0.00 0.00 0.00 78 1009.2
20260506110906 11 360 0.0 0.0 0.00 0.00 0.00 78 1009.2
20260506110407 11 360 0.0 0.0 0.00 0.00 0.00 79 1009.2
20260506105905 11 360 0.0 0.0 0.00 0.00 0.00 79 1009.1
20260506105339 11 360 0.0 0.0 0.00 0.00 0.00 79 1009.2
20260506104832 11 360 0.0 0.0 0.00 0.00 0.00 79 1009.2
20260506104342 11 360 0.0 0.0 0.00 0.00 0.00 79 1009.1
20260506103901 11 360 0.0 0.0 0.00 0.00 0.00 79 1009.1
20260506103333 11 360 0.0 0.0 0.00 0.00 0.00 79 1009.2
20260506102845 11 360 0.0 0.0 0.00 0.00 0.00 79 1009.1
20260506102339 11 360 0.0 0.0 0.00 0.00 0.00 79 1009.0
20260506101831 11 360 0.0 0.0 0.00 0.00 0.00 79 1009.1
20260506101345 11 360 0.0 0.0 0.00 0.00 0.00 79 1009.1
20260506100839 11 360 0.0 0.0 0.00 0.00 0.00 79 1009.0
20260506100332 11 360 0.0 0.0 0.00 0.00 0.00 78 1009.0
20260506095839 11 360 0.0 0.0 0.00 0.00 0.00 77 1009.0
20260506095339 11 360 0.0 0.0 0.00 0.00 0.00 77 1008.9
20260506094845 11 360 0.0 0.0 0.00 0.00 0.00 76 1008.9
20260506094339 11 360 0.0 0.0 0.00 0.00 0.00 76 1008.9
20260506093834 11 360 0.0 0.0 0.00 0.00 0.00 76 1008.8
20260506093346 11 360 0.0 0.0 0.00 0.00 0.00 77 1008.7
20260506092836 11 360 0.0 0.0 0.00 0.00 0.00 76 1008.8
20260506092358 11 360 0.0 0.0 0.00 0.00 0.00 76 1008.6
20260506091846 12 360 0.0 0.0 0.00 0.00 0.00 75 1008.6
20260506091339 12 360 0.0 0.0 0.00 0.00 0.00 76 1008.6
20260506090834 12 360 0.0 0.0 0.00 0.00 0.00 75 1008.6
20260506090345 12 360 0.0 0.0 0.00 0.00 0.00 75 1008.6
20260506085835 12 360 0.0 0.0 0.00 0.00 0.00 75 1008.5
20260506085330 12 360 0.0 0.0 0.00 0.00 0.00 75 1008.5
20260506084847 12 360 0.0 0.0 0.00 0.00 0.00 75 1008.5
20260506084341 12 360 0.0 0.0 0.00 0.00 0.00 76 1008.5
20260506083834 12 360 0.0 0.0 0.00 0.00 0.00 77 1008.5
20260506083345 12 360 0.0 0.0 0.00 0.00 0.00 77 1008.4
20260506082844 11 360 0.0 0.0 0.00 0.00 0.00 78 1008.3
20260506082343 11 360 0.0 0.0 0.00 0.00 0.00 76 1008.3
20260506081837 11 360 0.0 0.0 0.00 0.00 0.00 76 1008.3
20260506081331 11 360 0.0 0.0 0.00 0.00 0.00 76 1008.4
20260506080845 11 360 0.0 0.0 0.00 0.00 0.00 76 1008.2
20260506080337 12 360 0.0 0.0 0.00 0.00 0.00 75 1008.3
20260506073347 12 360 0.0 0.0 0.00 0.00 0.00 75 1008.3
20260506072835 12 360 0.0 0.0 0.00 0.00 0.00 75 1008.2
20260506072328 12 360 0.0 0.0 0.00 0.00 0.00 76 1008.2
20260506071839 12 360 0.0 0.0 0.00 0.00 0.00 76 1008.0
20260506071356 12 360 0.0 0.0 0.00 0.00 0.00 76 1008.0
20260506070858 12 360 0.0 0.0 0.00 0.00 0.00 76 1008.0
20260506070339 12 360 0.0 0.0 0.00 0.00 0.00 75 1008.1
20260506062339 10 360 0.0 1.6 0.00 0.00 0.00 81 1008.0
20260506061829 10 36 0.0 1.6 0.00 0.00 0.00 82 1007.9
20260506061339 10 36 0.0 1.6 0.00 0.00 0.00 82 1008.0
20260506060829 10 360 0.0 1.6 0.00 0.00 0.00 83 1007.9
20260506060340 10 360 0.0 1.6 0.00 0.00 0.00 84 1007.9
20260506051330 8 360 0.0 0.0 0.00 0.00 0.00 86 1007.8
20260506050834 8 360 0.0 0.0 0.00 0.00 0.00 85 1007.8
20260506050342 8 360 0.0 0.0 0.00 0.00 0.00 85 1007.7
20260506044834 8 360 0.0 0.0 0.00 0.00 0.00 84 1007.7
20260506044343 8 360 0.0 0.0 0.00 0.00 0.00 84 1007.7
20260506043833 8 360 0.0 0.0 0.00 0.00 0.00 84 1007.8
20260506043339 8 360 0.0 0.0 0.00 0.00 0.00 84 1007.9
20260506042847 8 360 0.0 0.0 0.00 0.00 0.00 83 1007.8
20260506042406 8 360 0.0 0.0 0.00 0.00 0.00 83 1007.8
20260506041905 8 360 0.0 0.0 0.00 0.00 0.00 83 1007.8
20260506041401 8 360 0.0 0.0 0.00 0.00 0.00 83 1007.7
20260506040829 8 360 0.0 0.0 0.00 0.00 0.00 83 1007.8
20260506040335 8 360 0.0 0.0 0.00 0.00 0.00 83 1007.8
20260506035843 8 360 0.0 0.0 0.00 0.00 0.00 83 1007.8
20260506035341 8 360 0.0 0.0 0.00 0.00 0.00 82 1007.9
20260506034900 8 360 0.0 0.0 0.00 0.00 0.00 83 1007.9
20260506034337 8 360 0.0 0.0 0.00 0.00 0.00 83 1007.9
20260506033827 8 360 0.0 0.0 0.00 0.00 0.00 83 1007.8
20260506033339 9 360 0.0 1.6 0.00 0.00 0.00 82 1007.8
20260506032843 9 360 0.0 1.6 0.00 0.00 0.00 82 1007.8
20260506032402 9 360 0.0 1.6 0.00 0.00 0.00 82 1007.8
20260506031830 9 360 0.0 1.6 0.00 0.00 0.00 83 1007.8
20260506031340 9 360 0.0 0.0 0.00 0.00 0.00 83 1008.0
20260506030830 9 360 0.0 1.6 0.00 0.00 0.00 82 1007.8
20260506030341 9 360 0.0 1.6 0.00 0.00 0.00 82 1007.9
20260506025828 9 360 0.0 1.6 0.00 0.00 0.00 83 1007.9
20260506025339 9 360 0.0 0.0 0.00 0.00 0.00 83 1007.9
20260506024832 9 360 0.0 0.0 0.00 0.00 0.00 83 1007.9
20260506024347 9 360 0.0 1.6 0.00 0.00 0.00 82 1007.8
20260506023838 9 360 0.0 0.0 0.00 0.00 0.00 82 1007.9
20260506023329 9 360 0.0 0.0 0.00 0.00 0.00 82 1007.9
20260506022839 9 360 0.0 0.0 0.00 0.00 0.00 82 1007.9
20260506022331 9 360 0.0 0.0 0.00 0.00 0.00 82 1007.9
20260506021842 9 360 0.0 1.6 0.00 0.00 0.00 81 1007.9
20260506021353 9 360 0.0 1.6 0.00 0.00 0.00 81 1007.8
20260506020839 9 360 0.0 0.0 0.00 0.00 0.00 81 1007.9
20260506020330 9 360 0.0 1.6 0.00 0.00 0.00 81 1007.9
20260506015840 9 360 0.0 1.6 0.00 0.00 0.00 81 1007.8
20260506015351 9 360 0.0 0.0 0.00 0.00 0.00 81 1007.9
20260506014842 9 360 0.0 1.6 0.00 0.00 0.00 81 1007.9
20260506014331 9 360 0.0 1.6 0.00 0.00 0.00 80 1007.9
20260506013843 9 360 0.0 1.6 0.00 0.00 0.00 81 1007.9
20260506013351 10 360 0.0 1.6 0.00 0.00 0.00 81 1007.9
20260506012839 10 360 0.0 1.6 0.00 0.00 0.00 81 1007.9
20260506012359 10 360 0.0 1.6 0.00 0.00 0.00 82 1007.9
20260506011827 10 360 0.0 1.6 0.00 0.00 0.00 82 1007.8
20260506011408 10 360 0.0 1.6 0.00 0.00 0.00 82 1007.9
20260506010906 10 360 0.0 1.6 0.00 0.00 0.00 82 1007.9
20260506010338 10 360 0.0 1.6 0.00 0.00 0.00 82 1008.0
20260506005830 10 360 0.0 3.2 0.00 0.00 0.00 82 1007.9
20260506005345 10 360 0.0 3.2 0.00 0.00 0.00 83 1007.9
20260506004836 10 360 0.0 1.6 0.00 0.00 0.00 83 1008.0
20260506004327 10 360 0.0 1.6 0.00 0.00 0.00 83 1008.0
20260506003839 10 360 0.0 1.6 0.00 0.00 0.00 83 1008.0
20260506003351 10 360 0.0 1.6 0.00 0.00 0.00 83 1008.1
20260506002907 10 360 0.0 1.6 0.00 0.00 0.00 83 1008.1
20260506002353 10 360 0.0 1.6 0.00 0.00 0.00 83 1008.3
20260506001845 10 360 0.0 1.6 0.00 0.00 0.00 83 1008.2
20260506001338 10 360 0.0 1.6 0.00 0.00 0.00 84 1008.3
20260506000829 10 360 0.0 1.6 0.00 0.00 0.00 83 1008.2
20260506000342 10 360 0.0 1.6 0.00 0.00 0.00 84 1008.3
20260505235833 10 360 0.0 1.6 0.00 0.00 0.00 83 1008.2
20260505235345 10 360 0.0 1.6 0.00 0.00 0.00 83 1008.2
20260505234836 10 360 0.0 1.6 0.00 0.00 0.00 83 1008.3
20260505234345 10 360 0.0 0.0 0.00 0.00 0.00 83 1008.3
20260505233859 10 360 0.0 1.6 0.00 0.00 0.00 83 1008.3
20260505233347 10 360 0.0 1.6 0.00 0.00 0.00 83 1008.4
20260505232904 10 360 0.0 1.6 0.00 0.00 0.00 83 1008.3
20260505232331 10 360 0.0 1.6 0.00 0.00 0.00 83 1008.3
20260505231841 10 360 0.0 1.6 0.00 0.00 0.00 83 1008.4
20260505231329 10 360 0.0 0.0 0.00 0.00 0.00 83 1008.3
20260505230839 10 360 0.0 1.6 0.00 0.00 0.00 83 1008.4
20260505230332 10 360 0.0 1.6 0.00 0.00 0.00 82 1008.4
20260505225840 10 360 0.0 1.6 0.00 0.00 0.00 82 1008.4
20260505225331 10 360 0.0 1.6 0.00 0.00 0.00 82 1008.4
20260505224838 10 360 0.0 1.6 0.00 0.00 0.00 82 1008.5
20260505224348 10 360 0.0 0.0 0.00 0.00 0.00 82 1008.5
20260505223836 10 360 0.0 1.6 0.00 0.00 0.00 82 1008.4
20260505223345 10 360 0.0 1.6 0.00 0.00 0.00 81 1008.5
20260505222828 10 360 0.0 3.2 0.00 0.00 0.00 82 1008.5
20260505222337 10 360 0.0 3.2 0.00 0.00 0.00 82 1008.5
20260505221828 11 360 0.0 0.0 0.00 0.00 0.00 81 1008.4
20260505221337 11 360 0.0 1.6 0.00 0.00 0.00 81 1008.4
20260505220827 11 360 0.0 1.6 0.00 0.00 0.00 81 1008.5
20260505220405 11 360 0.0 1.6 0.00 0.00 0.00 81 1008.6
20260505215842 11 360 0.0 1.6 0.00 0.00 0.00 82 1008.5
20260505215348 11 360 0.0 1.6 0.00 0.00 0.00 81 1008.5
20260505214837 11 360 0.0 1.6 0.00 0.00 0.00 81 1008.5
20260505214346 11 360 0.0 3.2 0.00 0.00 0.00 81 1008.6
20260505213840 11 360 0.0 3.2 0.00 0.00 0.00 81 1008.6
20260505213350 11 360 0.0 1.6 0.00 0.00 0.00 81 1008.7
20260505212838 11 360 0.0 1.6 0.00 0.00 0.00 81 1008.6
20260505212357 11 360 0.0 1.6 0.00 0.00 0.00 81 1008.6
20260505211840 11 360 0.0 1.6 0.00 0.00 0.00 81 1008.6
20260505211331 11 360 0.0 3.2 0.00 0.00 0.00 81 1008.8
20260505210841 11 360 0.0 3.2 0.00 0.00 0.00 81 1008.7
20260505210332 11 360 0.0 1.6 0.00 0.00 0.00 80 1008.7
20260505205840 11 360 0.0 1.6 0.00 0.00 0.00 80 1008.7
20260505205329 11 360 0.0 1.6 0.00 0.00 0.00 80 1008.7
20260505204838 11 360 0.0 0.0 0.00 0.00 0.00 80 1008.7
20260505204328 11 360 0.0 3.2 0.00 0.00 0.00 80 1008.6
20260505203833 11 360 0.0 3.2 0.00 0.00 0.00 80 1008.6
20260505203343 11 360 0.0 1.6 0.00 0.00 0.00 80 1008.6
20260505202851 11 360 0.0 1.6 0.00 0.00 0.00 80 1008.6
20260505202340 11 360 0.0 1.6 0.00 0.00 0.00 80 1008.6
20260505201831 11 360 0.0 1.6 0.00 0.00 0.00 80 1008.5
20260505201340 11 360 0.0 1.6 0.00 0.00 0.00 79 1008.4
20260505200859 11 360 0.0 1.6 0.00 0.00 0.00 80 1008.5
20260505200343 11 360 0.0 1.6 0.00 0.00 0.00 80 1008.4
20260505195831 12 360 0.0 1.6 0.00 0.00 0.00 79 1008.2
20260505195340 12 360 0.0 1.6 0.00 0.00 0.00 79 1008.2
20260505194849 12 360 0.0 1.6 0.00 0.00 0.00 79 1008.1
20260505194339 12 360 0.0 1.6 0.00 0.00 0.00 78 1008.0
20260505193828 12 360 0.0 1.6 0.00 0.00 0.00 78 1008.0
20260505193338 12 360 0.0 1.6 0.00 0.00 0.00 78 1007.9
20260505192846 12 360 0.0 1.6 0.00 0.00 0.00 77 1008.0
20260505192352 12 360 0.0 0.0 0.00 0.00 0.00 78 1007.8
20260505191840 12 360 0.0 0.0 0.00 0.00 0.00 77 1007.8
20260505191330 12 360 0.0 0.0 0.00 0.00 0.00 77 1007.8
20260505190839 12 360 0.0 0.0 0.00 0.00 0.00 76 1007.8
20260505190329 12 360 0.0 0.0 0.00 0.00 0.00 76 1007.7
20260505185904 12 360 0.0 1.6 0.00 0.00 0.00 77 1007.7
20260505185332 13 360 0.0 1.6 0.00 0.00 0.00 76 1007.7
20260505184907 13 360 0.0 1.6 0.00 0.00 0.00 75 1007.7
20260505184338 13 360 0.0 4.8 0.00 0.00 0.00 75 1007.7
20260505183830 13 360 0.0 4.8 0.00 0.00 0.00 75 1007.7
20260505183409 13 360 0.0 1.6 0.00 0.00 0.00 75 1007.6
20260505182857 13 360 0.0 1.6 0.00 0.00 0.00 74 1007.6
20260505182404 13 360 0.0 3.2 0.00 0.00 0.00 74 1007.6
20260505181834 13 360 0.0 3.2 0.00 0.00 0.00 73 1007.6
20260505181342 13 360 0.0 1.6 0.00 0.00 0.00 74 1007.6
20260505180841 13 360 0.0 1.6 0.00 0.00 0.00 74 1007.6
20260505180402 13 360 0.0 0.0 0.00 0.00 0.00 74 1007.6
20260505175851 13 360 0.0 0.0 0.00 0.00 0.00 74 1007.6
20260505175341 13 360 0.0 0.0 0.00 0.00 0.00 73 1007.6
20260505174833 14 360 0.0 0.0 0.00 0.00 0.00 75 1007.6
20260505174328 13 360 0.0 0.0 0.00 0.00 0.00 75 1007.6
20260505173842 13 360 0.0 0.0 0.00 0.00 0.00 75 1007.6
20260505173331 13 360 0.0 0.0 0.00 0.00 0.00 75 1007.6
20260505172839 13 360 0.0 0.0 0.00 0.00 0.00 75 1007.5
20260505172331 14 360 0.0 0.0 0.00 0.00 0.00 76 1007.5
20260505171843 14 360 0.0 0.0 0.00 0.00 0.00 76 1007.6
20260505171335 14 360 0.0 0.0 0.00 0.00 0.00 75 1007.5
20260505170846 14 360 0.0 0.0 0.00 0.00 0.00 75 1007.6
20260505170337 14 360 0.0 0.0 0.00 0.00 0.00 76 1007.6
20260505165846 14 360 0.0 0.0 0.00 0.00 0.00 76 1007.6
20260505165337 14 360 0.0 0.0 0.00 0.00 0.00 76 1007.6
20260505164844 14 360 0.0 0.0 0.00 0.00 0.00 75 1007.6